Terminal Aerodrome Forecast
Issued by NWS State College, PA

Home | Current Version | Previous Version | Text Only | Print | Product List | Glossary On
Versions: 1 2 3 4 5 6 7 8 9 10 11 12 13 14 15 16 17 18 19 20 21 22 23 24 25 26 27 28 29 30 31 32 33 34 35 36 37 38 39 40 41 42 43 44 45 46 47 48 49 50
000
FTUS41 KCTP 121540 AAA
TAFIPT
TAF AMD
KIPT 121540Z 1216/1312 23004KT P6SM OVC130
     FM122200 24006KT 2SM -SN OVC030
     FM130000 24007KT 1SM -SN OVC018
     FM130400 28008G16KT 2SM -SN OVC025
     FM130700 29015G23KT 6SM -SHSN OVC040=

USA.gov is the U.S. government's official web portal to all federal, state and local government web resources and services.